CW9381 Weather Reports


Display with metric or nautical units.
time (UTC)temp
F
wind
direction
speed
MPH
gust
MPH
rain 1hr
in
rain 24hr
in
rain mn
in
humidity
%
barometer
mb
20190218013704 15 355 1.0 6.0 0.00 0.00 0.00 59 1019.7
20190218013205 15 16 2.0 6.0 0.00 0.00 0.00 59 1019.7
20190218012705 15 336 2.0 6.0 0.00 0.00 0.00 59 1019.6
20190218012205 15 44 1.0 4.0 0.00 0.00 0.00 58 1019.6
20190218011705 16 17 1.0 4.0 0.00 0.00 0.00 58 1019.5
20190218011205 16 350 1.0 3.0 0.00 0.00 0.00 58 1019.5
20190218010705 16 5 1.0 4.0 0.00 0.00 0.00 58 1019.4
20190218010204 16 11 1.0 4.0 0.00 0.00 0.00 58 1019.3
20190218005705 16 351 2.0 4.0 0.00 0.00 0.00 58 1019.3
20190218005205 17 323 2.0 6.0 0.00 0.00 0.00 58 1019.3
20190218004705 17 13 2.0 6.0 0.00 0.00 0.00 57 1019.2
20190218004204 17 334 3.0 8.0 0.00 0.00 0.00 57 1019.2
20190218003705 17 335 3.0 8.0 0.00 0.00 0.00 57 1019.1
20190218003205 17 14 3.0 8.0 0.00 0.00 0.00 57 1019.0
20190218002705 17 320 3.0 7.0 0.00 0.00 0.00 57 1018.9
20190218002206 17 28 3.0 8.0 0.00 0.00 0.00 57 1018.8
20190218001704 18 5 3.0 8.0 0.00 0.00 0.00 58 1018.8
20190218001205 18 350 4.0 9.0 0.00 0.00 0.00 57 1018.7
20190218000705 18 32 4.0 9.0 0.00 0.00 0.00 57 1018.6
20190218000205 18 334 3.0 9.0 0.00 0.00 0.00 58 1018.5
20190217235705 18 53 3.0 7.0 0.00 0.00 0.00 58 1018.4
20190217235204 18 20 3.0 8.0 0.00 0.00 0.00 59 1018.4
20190217234705 18 25 3.0 8.0 0.00 0.00 0.00 57 1018.3
20190217234205 19 9 3.0 6.0 0.00 0.00 0.00 57 1018.2
20190217233705 19 13 3.0 6.0 0.00 0.00 0.00 58 1018.2
20190217233205 19 336 3.0 6.0 0.00 0.00 0.00 57 1018.1
20190217232706 19 28 2.0 5.0 0.00 0.00 0.00 58 1018.1
20190217232205 20 347 1.0 6.0 0.00 0.00 0.00 56 1018.0
20190217231705 20 340 2.0 6.0 0.00 0.00 0.00 55 1017.9
20190217231205 20 22 2.0 9.0 0.00 0.00 0.00 55 1017.8
20190217230705 20 11 2.0 9.0 0.00 0.00 0.00 56 1017.8
20190217230205 20 30 3.0 9.0 0.00 0.00 0.00 56 1017.7
20190217225706 20 53 3.0 9.0 0.00 0.00 0.00 55 1017.7
20190217225205 20 331 3.0 9.0 0.00 0.00 0.00 55 1017.6
20190217224705 21 0 3.0 8.0 0.00 0.00 0.00 55 1017.6
20190217224205 21 11 3.0 8.0 0.00 0.00 0.00 55 1017.5
20190217223705 21 83 2.0 8.0 0.00 0.00 0.00 55 1017.5
20190217223205 21 0 2.0 6.0 0.00 0.00 0.00 55 1017.4
20190217222705 21 82 1.0 6.0 0.00 0.00 0.00 54 1017.4
20190217222204 21 56 2.0 9.0 0.00 0.00 0.00 54 1017.4
20190217221705 21 30 3.0 9.0 0.00 0.00 0.00 53 1017.4
20190217221205 21 32 4.0 9.0 0.00 0.00 0.00 53 1017.4
20190217220705 21 75 4.0 12.0 0.00 0.00 0.00 52 1017.4
20190217220205 21 68 5.0 12.0 0.00 0.00 0.00 52 1017.4
20190217215705 21 95 5.0 12.0 0.00 0.00 0.00 52 1017.4
20190217215205 21 46 4.0 11.0 0.00 0.00 0.00 52 1017.3
20190217214704 21 41 4.0 11.0 0.00 0.00 0.00 52 1017.3
20190217214205 21 19 5.0 13.0 0.00 0.00 0.00 51 1017.3
20190217213704 21 304 6.0 15.0 0.00 0.00 0.00 51 1017.3
20190217213205 21 46 6.0 15.0 0.00 0.00 0.00 51 1017.3
20190217212704 21 103 5.0 15.0 0.00 0.00 0.00 51 1017.3
20190217212205 21 47 5.0 11.0 0.00 0.00 0.00 49 1017.2
20190217211705 21 302 4.0 11.0 0.00 0.00 0.00 51 1017.2
20190217211205 21 62 4.0 12.0 0.00 0.00 0.00 49 1017.3
20190217210705 21 46 5.0 12.0 0.00 0.00 0.00 49 1017.2
20190217210205 22 349 5.0 12.0 0.00 0.00 0.00 50 1017.1
20190217205706 22 101 5.0 12.0 0.00 0.00 0.00 50 1017.1
20190217205205 22 63 4.0 14.0 0.00 0.00 0.00 49 1017.1
20190217204705 22 342 5.0 14.0 0.00 0.00 0.00 50 1017.0
20190217204205 22 277 5.0 11.0 0.00 0.00 0.00 49 1017.0
20190217203706 22 54 5.0 12.0 0.00 0.00 0.00 51 1017.0
20190217203205 22 28 5.0 12.0 0.00 0.00 0.00 49 1017.0
20190217202705 22 348 4.0 12.0 0.00 0.00 0.00 50 1017.0
20190217202205 22 63 4.0 12.0 0.00 0.00 0.00 53 1016.9
20190217201704 21 348 6.0 12.0 0.00 0.00 0.00 52 1016.9
20190217201205 21 0 5.0 12.0 0.00 0.00 0.00 52 1016.9
20190217200705 22 337 5.0 11.0 0.00 0.00 0.00 54 1016.9
20190217200205 22 346 5.0 10.0 0.00 0.00 0.00 54 1016.9
20190217195705 22 328 5.0 10.0 0.00 0.00 0.00 53 1016.9
20190217195205 23 42 4.0 10.0 0.00 0.00 0.00 55 1016.9
20190217194705 22 48 4.0 10.0 0.00 0.00 0.00 57 1017.0
20190217194205 22 11 4.0 10.0 0.00 0.00 0.00 57 1017.0
20190217193705 22 43 5.0 10.0 0.00 0.00 0.00 59 1017.1
20190217193204 22 15 5.0 17.0 0.00 0.00 0.00 56 1017.1
20190217192705 23 98 6.0 17.0 0.00 0.00 0.00 55 1017.1
20190217192205 23 53 5.0 17.0 0.00 0.00 0.00 55 1017.1
20190217191705 23 117 5.0 10.0 0.00 0.00 0.00 57 1017.1
20190217191205 22 78 4.0 10.0 0.00 0.00 0.00 60 1017.1
20190217190705 22 28 3.0 9.0 0.00 0.00 0.00 63 1017.1
20190217190205 22 49 3.0 12.0 0.00 0.00 0.00 63 1017.1
20190217185705 21 347 4.0 13.0 0.00 0.00 0.00 65 1017.2
20190217185205 21 130 6.0 13.0 0.00 0.00 0.00 62 1017.3
20190217184705 21 56 6.0 13.0 0.00 0.00 0.00 63 1017.3
20190217184205 21 52 6.0 13.0 0.00 0.00 0.00 64 1017.3
20190217183705 21 44 6.0 11.0 0.00 0.00 0.00 63 1017.3
20190217183205 21 106 5.0 12.0 0.00 0.00 0.00 64 1017.4
20190217182705 21 56 6.0 12.0 0.00 0.00 0.00 65 1017.4
20190217182205 20 121 6.0 12.0 0.00 0.00 0.00 66 1017.5
20190217181705 19 97 6.0 11.0 0.00 0.00 0.00 65 1017.4
20190217181205 20 69 6.0 11.0 0.00 0.00 0.00 65 1017.5
20190217180704 20 23 5.0 9.0 0.00 0.00 0.00 66 1017.6
20190217180205 20 151 4.0 10.0 0.00 0.00 0.00 68 1017.6
20190217175704 20 92 4.0 11.0 0.00 0.00 0.00 67 1017.6
20190217175205 20 125 5.0 11.0 0.00 0.00 0.00 66 1017.7
20190217174705 20 51 4.0 10.0 0.00 0.00 0.00 67 1017.7
20190217174205 20 123 5.0 10.0 0.00 0.00 0.00 67 1017.7
20190217173705 20 67 6.0 10.0 0.00 0.00 0.00 66 1017.7
20190217173205 20 77 5.0 11.0 0.00 0.00 0.00 68 1017.7
20190217172705 20 119 5.0 11.0 0.00 0.00 0.00 69 1017.8
20190217172207 19 67 5.0 9.0 0.00 0.00 0.00 70 1017.8
20190217171705 18 65 5.0 9.0 0.00 0.00 0.00 71 1017.9
20190217171206 17 103 4.0 9.0 0.00 0.00 0.00 72 1017.9
20190217170709 17 36 4.0 9.0 0.00 0.00 0.00 73 1017.9
20190217170205 16 74 4.0 9.0 0.00 0.00 0.00 73 1017.9
20190217165707 16 68 4.0 10.0 0.00 0.00 0.00 73 1017.9
20190217165210 16 66 4.0 10.0 0.00 0.00 0.00 74 1017.9
20190217164706 15 143 5.0 13.0 0.00 0.00 0.00 74 1017.9
20190217164205 15 83 6.0 13.0 0.00 0.00 0.00 75 1017.8
20190217163705 15 11 6.0 13.0 0.00 0.00 0.00 75 1017.8
20190217163206 15 87 5.0 12.0 0.00 0.00 0.00 76 1017.8
20190217162706 15 33 5.0 11.0 0.00 0.00 0.00 77 1017.8
20190217162205 14 57 5.0 9.0 0.00 0.00 0.00 78 1017.8
20190217161705 14 46 5.0 10.0 0.00 0.00 0.00 79 1017.9
20190217161205 14 23 5.0 10.0 0.00 0.00 0.00 79 1017.9
20190217160705 13 111 5.0 10.0 0.00 0.00 0.00 80 1017.8
20190217160205 13 71 6.0 10.0 0.00 0.00 0.00 81 1017.8
20190217155705 12 52 5.0 10.0 0.00 0.00 0.00 82 1017.8
20190217155204 12 32 4.0 10.0 0.00 0.00 0.00 82 1017.8
20190217154705 11 71 5.0 10.0 0.00 0.00 0.00 83 1017.8
20190217154205 11 58 4.0 10.0 0.00 0.00 0.00 83 1017.8
20190217153705 11 72 4.0 11.0 0.00 0.00 0.00 84 1017.9
20190217153205 10 53 4.0 11.0 0.00 0.00 0.00 84 1017.7
20190217152705 10 45 5.0 11.0 0.00 0.00 0.00 85 1017.8
20190217152204 9 46 5.0 10.0 0.00 0.00 0.00 85 1017.8
20190217151705 9 74 4.0 10.0 0.00 0.00 0.00 85 1017.7
20190217151207 9 67 4.0 10.0 0.00 0.00 0.00 85 1017.8
20190217150705 8 88 4.0 9.0 0.00 0.00 0.00 86 1017.7
20190217150205 8 13 4.0 9.0 0.00 0.00 0.00 86 1017.7
20190217145705 8 51 4.0 8.0 0.00 0.00 0.00 86 1017.7
20190217145205 8 83 4.0 8.0 0.00 0.00 0.00 86 1017.7
20190217144705 7 64 4.0 9.0 0.00 0.00 0.00 86 1017.6
20190217144204 7 30 4.0 9.0 0.00 0.00 0.00 86 1017.6
20190217143705 7 77 3.0 10.0 0.00 0.00 0.00 86 1017.6
20190217143205 7 59 4.0 10.0 0.00 0.00 0.00 86 1017.6
20190217142705 6 63 4.0 10.0 0.00 0.00 0.00 86 1017.5
20190217142205 6 52 4.0 8.0 0.00 0.00 0.00 86 1017.4
20190217141705 6 56 3.0 8.0 0.00 0.00 0.00 86 1017.4
20190217141205 6 60 4.0 8.0 0.00 0.00 0.00 86 1017.3
20190217140704 5 47 3.0 8.0 0.00 0.00 0.00 86 1017.2
20190217140205 5 61 3.0 6.0 0.00 0.00 0.00 86 1017.2
20190217135705 5 45 3.0 7.0 0.00 0.00 0.00 86 1017.1
20190217135205 4 46 3.0 7.0 0.00 0.00 0.00 86 1017.1
20190217134706 4 28 3.0 7.0 0.00 0.00 0.00 86 1017.1
20190217134206 4 59 3.0 7.0 0.00 0.00 0.00 85 1017.0
20190217133704 4 5 2.0 6.0 0.00 0.00 0.00 85 1017.0
20190217133205 4 40 2.0 7.0 0.00 0.00 0.00 85 1016.9
20190217132704 4 113 2.0 7.0 0.00 0.00 0.00 85 1016.9
20190217132205 4 48 2.0 7.0 0.00 0.00 0.00 85 1016.9
20190217131705 4 84 2.0 7.0 0.00 0.00 0.00 85 1016.8
20190217131205 4 33 3.0 7.0 0.00 0.00 0.00 85 1016.8
20190217130705 4 32 3.0 7.0 0.00 0.00 0.00 84 1016.8
20190217130204 4 64 2.0 7.0 0.00 0.00 0.00 84 1016.7
20190217125705 4 38 2.0 8.0 0.00 0.00 0.00 84 1016.7
20190217125205 4 78 3.0 8.0 0.00 0.00 0.00 84 1016.6
20190217124705 5 60 3.0 8.0 0.00 0.00 0.00 84 1016.6
20190217124205 5 40 3.0 10.0 0.00 0.00 0.00 84 1016.5
20190217123705 5 72 3.0 10.0 0.00 0.00 0.00 85 1016.4
20190217123205 5 41 4.0 10.0 0.00 0.00 0.00 85 1016.4
20190217122705 4 75 4.0 10.0 0.00 0.00 0.00 84 1016.3
20190217122205 4 59 3.0 10.0 0.00 0.00 0.00 84 1016.3
20190217121705 4 26 3.0 10.0 0.00 0.00 0.00 84 1016.4
20190217121205 4 39 4.0 10.0 0.00 0.00 0.00 83 1016.4
20190217120705 4 34 3.0 8.0 0.00 0.00 0.00 84 1016.4
20190217120204 4 77 2.0 9.0 0.00 0.00 0.00 83 1016.5
20190217115705 4 72 3.0 9.0 0.00 0.00 0.00 83 1016.4
20190217115205 4 40 3.0 9.0 0.00 0.00 0.00 83 1016.5
20190217114705 4 27 3.0 8.0 0.00 0.00 0.00 82 1016.5
20190217114205 4 69 3.0 8.0 0.00 0.00 0.00 83 1016.4
20190217113705 4 5 3.0 8.0 0.00 0.00 0.00 82 1016.5
20190217113205 4 15 3.0 7.0 0.00 0.00 0.00 82 1016.4
20190217112706 5 37 3.0 7.0 0.00 0.00 0.00 82 1016.5
20190217112204 5 70 3.0 9.0 0.00 0.00 0.00 82 1016.4
20190217111705 5 61 3.0 9.0 0.00 0.00 0.00 82 1016.4
20190217111205 5 45 3.0 9.0 0.00 0.00 0.00 82 1016.5
20190217110705 5 70 4.0 8.0 0.00 0.00 0.00 82 1016.4
20190217110206 5 60 4.0 10.0 0.00 0.00 0.00 82 1016.3
20190217105705 5 57 4.0 10.0 0.00 0.00 0.00 82 1016.3
20190217105205 5 10 4.0 9.0 0.00 0.00 0.00 82 1016.3
20190217104705 5 66 4.0 9.0 0.00 0.00 0.00 82 1016.2
20190217104204 5 65 4.0 8.0 0.00 0.00 0.00 81 1016.1
20190217103705 5 78 3.0 8.0 0.00 0.00 0.00 81 1016.1
20190217103205 6 67 2.0 8.0 0.00 0.00 0.00 81 1016.0
20190217102705 6 34 3.0 8.0 0.00 0.00 0.00 81 1016.0
20190217102205 6 32 3.0 8.0 0.00 0.00 0.00 81 1016.0
20190217101705 6 79 3.0 8.0 0.00 0.00 0.00 81 1016.0
20190217101206 6 80 3.0 7.0 0.00 0.00 0.00 90 1016.0
20190217100705 6 61 3.0 8.0 0.00 0.00 0.00 81 1016.0
20190217100205 6 86 3.0 9.0 0.00 0.00 0.00 81 1016.0
20190217095705 6 68 4.0 9.0 0.00 0.00 0.00 80 1015.9
20190217095205 6 79 4.0 9.0 0.00 0.00 0.00 81 1016.0
20190217094705 6 51 3.0 8.0 0.00 0.00 0.00 80 1015.9
20190217094205 6 55 4.0 8.0 0.00 0.00 0.00 80 1015.9
20190217093705 6 75 4.0 8.0 0.00 0.00 0.00 80 1015.9
20190217093205 6 60 4.0 9.0 0.00 0.00 0.00 80 1015.9
20190217092705 7 38 4.0 9.0 0.00 0.00 0.00 80 1016.0
20190217092205 7 57 4.0 9.0 0.00 0.00 0.00 80 1015.9
20190217091705 7 42 4.0 8.0 0.00 0.00 0.00 80 1015.9
20190217091205 7 126 4.0 8.0 0.00 0.00 0.00 79 1015.9
20190217090705 7 66 4.0 7.0 0.00 0.00 0.00 79 1015.9
20190217090205 7 90 3.0 7.0 0.00 0.00 0.00 79 1016.0
20190217085705 7 95 3.0 7.0 0.00 0.00 0.00 78 1016.0
20190217085205 8 67 3.0 7.0 0.00 0.00 0.00 78 1016.0
20190217084705 8 66 3.0 7.0 0.00 0.00 0.00 78 1016.1
20190217084205 8 98 3.0 8.0 0.00 0.00 0.00 77 1016.1
20190217083705 8 81 3.0 8.0 0.00 0.00 0.00 78 1016.2
20190217083205 8 57 3.0 8.0 0.00 0.00 0.00 77 1016.2
20190217082705 9 76 4.0 8.0 0.00 0.00 0.00 77 1016.2
20190217082205 9 57 4.0 8.0 0.00 0.00 0.00 77 1016.3
20190217081705 9 80 4.0 8.0 0.00 0.00 0.00 77 1016.3
20190217081205 9 61 4.0 8.0 0.00 0.00 0.00 77 1016.4
20190217080705 10 55 4.0 8.0 0.00 0.00 0.00 77 1016.4
20190217080205 10 86 4.0 8.0 0.00 0.00 0.00 77 1016.4
20190217075705 10 49 4.0 8.0 0.00 0.00 0.00 77 1016.4
20190217075205 10 62 4.0 8.0 0.00 0.00 0.00 77 1016.4
20190217074705 10 46 4.0 8.0 0.00 0.00 0.00 77 1016.4
20190217074205 10 86 4.0 8.0 0.00 0.00 0.00 77 1016.4
20190217073705 10 61 4.0 8.0 0.00 0.00 0.00 77 1016.4
20190217073205 10 51 3.0 8.0 0.00 0.00 0.00 77 1016.4
20190217072705 11 88 4.0 8.0 0.00 0.00 0.00 77 1016.4
20190217072204 11 123 4.0 8.0 0.00 0.00 0.00 77 1016.3
20190217071705 11 46 4.0 8.0 0.00 0.00 0.00 77 1016.3
20190217071205 11 52 3.0 8.0 0.00 0.00 0.00 77 1016.3
20190217070705 11 109 3.0 8.0 0.00 0.00 0.00 76 1016.3
20190217070205 11 65 4.0 8.0 0.00 0.00 0.00 76 1016.2
20190217065705 11 56 4.0 8.0 0.00 0.00 0.00 76 1016.2
20190217065205 11 74 3.0 7.0 0.00 0.00 0.00 76 1016.3
20190217064705 11 30 3.0 7.0 0.00 0.00 0.00 76 1016.3
20190217064205 11 90 3.0 8.0 0.00 0.00 0.00 76 1016.3
20190217063705 11 51 3.0 8.0 0.00 0.00 0.00 76 1016.2
20190217063206 11 54 4.0 8.0 0.00 0.00 0.00 76 1016.3
20190217062705 11 103 3.0 9.0 0.00 0.00 0.00 75 1016.3
20190217062205 11 52 4.0 9.0 0.00 0.00 0.00 75 1016.3
20190217061705 11 79 4.0 9.0 0.00 0.00 0.00 75 1016.3
20190217061205 11 131 4.0 9.0 0.00 0.00 0.00 75 1016.3
20190217060705 11 66 4.0 8.0 0.00 0.00 0.00 75 1016.3
20190217060205 11 77 3.0 8.0 0.00 0.00 0.00 75 1016.2
20190217055705 11 59 3.0 8.0 0.00 0.00 0.00 75 1016.2
20190217055204 11 33 3.0 8.0 0.00 0.00 0.00 75 1016.2
20190217054705 11 53 3.0 9.0 0.00 0.00 0.00 74 1016.2
20190217054205 11 63 4.0 9.0 0.00 0.00 0.00 74 1016.2
20190217053705 11 82 4.0 10.0 0.00 0.00 0.00 74 1016.2
20190217053205 11 52 4.0 10.0 0.00 0.00 0.00 74 1016.2
20190217052705 11 85 5.0 10.0 0.00 0.00 0.00 73 1016.2
20190217052205 11 73 4.0 9.0 0.00 0.00 0.00 73 1016.1
20190217051704 11 67 4.0 9.0 0.00 0.00 0.00 73 1016.1
20190217051205 11 65 4.0 10.0 0.00 0.00 0.00 73 1016.1
20190217050706 11 112 4.0 10.0 0.00 0.00 0.00 72 1016.1
20190217050206 11 67 4.0 10.0 0.00 0.00 0.00 72 1016.0
20190217045705 12 78 4.0 9.0 0.00 0.00 0.00 72 1016.0
20190217045205 12 86 4.0 9.0 0.00 0.00 0.00 72 1016.1
20190217044705 12 63 5.0 9.0 0.00 0.00 0.00 72 1016.2
20190217044205 11 78 4.0 9.0 0.00 0.00 0.00 73 1016.1
20190217043704 11 87 4.0 9.0 0.00 0.00 0.00 73 1016.1
20190217043205 11 68 4.0 10.0 0.00 0.00 0.00 73 1016.1
20190217042705 11 92 3.0 10.0 0.00 0.00 0.00 73 1016.0
20190217042205 11 119 4.0 10.0 0.00 0.00 0.00 73 1016.0
20190217041705 11 82 4.0 8.0 0.00 0.00 0.00 73 1015.9
20190217041206 11 43 4.0 7.0 0.00 0.00 0.00 73 1015.9
20190217040704 11 65 3.0 7.0 0.00 0.00 0.00 73 1015.8
20190217040205 11 79 3.0 7.0 0.00 0.00 0.00 73 1015.8
20190217035705 11 56 3.0 7.0 0.00 0.00 0.00 73 1015.7
20190217035205 11 42 2.0 7.0 0.00 0.00 0.00 73 1015.7
20190217034705 11 76 2.0 7.0 0.00 0.00 0.00 73 1015.7
20190217034205 12 57 2.0 7.0 0.00 0.00 0.00 73 1015.7
20190217033705 12 65 3.0 7.0 0.00 0.00 0.00 73 1015.7
20190217033205 12 88 2.0 5.0 0.00 0.00 0.00 73 1015.7
20190217032705 12 99 2.0 6.0 0.00 0.00 0.00 73 1015.6
20190217032205 12 63 2.0 6.0 0.00 0.00 0.00 73 1015.6
20190217031705 12 30 2.0 6.0 0.00 0.00 0.00 73 1015.5
20190217031205 12 85 2.0 5.0 0.00 0.00 0.00 73 1015.6
20190217030705 12 71 2.0 5.0 0.00 0.00 0.00 73 1015.6
20190217030206 12 38 3.0 5.0 0.00 0.00 0.00 73 1015.6
20190217025705 12 74 3.0 5.0 0.00 0.00 0.00 73 1015.6
20190217025206 12 88 2.0 7.0 0.00 0.00 0.00 72 1015.6
20190217024706 12 26 2.0 7.0 0.00 0.00 0.00 72 1015.6
20190217024205 12 58 3.0 8.0 0.00 0.00 0.00 72 1015.6
20190217023705 12 53 3.0 8.0 0.00 0.00 0.00 73 1015.7
20190217023205 12 101 3.0 8.0 0.00 0.00 0.00 73 1015.7
20190217022705 12 73 3.0 8.0 0.00 0.00 0.00 73 1015.6
20190217022205 12 131 3.0 8.0 0.00 0.00 0.00 73 1015.6
20190217021705 12 34 2.0 7.0 0.00 0.00 0.00 73 1015.6
20190217021204 12 74 3.0 7.0 0.00 0.00 0.00 73 1015.5
20190217020705 12 101 3.0 7.0 0.00 0.00 0.00 73 1015.6
20190217020205 12 60 3.0 8.0 0.00 0.00 0.00 73 1015.7
20190217015704 12 74 3.0 8.0 0.00 0.00 0.00 73 1015.7
20190217015205 12 98 2.0 8.0 0.00 0.00 0.00 73 1015.7
20190217014706 11 58 2.0 5.0 0.00 0.00 0.00 73 1015.8
20190217014205 11 80 2.0 5.0 0.00 0.00 0.00 73 1015.8